| time (UTC) | temp F | wind direction | speed MPH | gust MPH | rain 1hr in | rain 24hr in | rain mn in | humidity % | barometer mb |
| 20260507040519 | 60 | 192 | 3.0 | 3.0 | 0.00 | 0.00 | 0.00 | 77 | 1019.5 |
| 20260507040015 | 59 | 186 | 2.0 | 2.0 | 0.00 | 0.00 | 0.00 | 77 | 1019.5 |
| 20260507035512 | 59 | 192 | 2.0 | 2.0 | 0.00 | 0.00 | 0.00 | 76 | 1019.6 |
| 20260507035008 | 59 | 170 | 4.0 | 5.0 | 0.00 | 0.00 | 0.00 | 76 | 1019.5 |
| 20260507034505 | 59 | 214 | 1.0 | 1.0 | 0.00 | 0.00 | 0.00 | 76 | 1019.4 |
| 20260507034003 | 60 | 197 | 1.0 | 2.0 | 0.00 | 0.00 | 0.00 | 76 | 1019.2 |
| 20260507033501 | 60 | 207 | 1.0 | 1.0 | 0.00 | 0.00 | 0.00 | 75 | 1019.2 |
| 20260507032958 | 60 | 191 | 2.0 | 2.0 | 0.00 | 0.00 | 0.00 | 74 | 1019.0 |
| 20260507032455 | 60 | 219 | 0.0 | 0.0 | 0.00 | 0.00 | 0.00 | 74 | 1019.1 |
| 20260507031951 | 61 | 206 | 1.0 | 2.0 | 0.00 | 0.00 | 0.00 | 73 | 1019.2 |
| 20260507031448 | 61 | 209 | 0.0 | 0.0 | 0.00 | 0.00 | 0.00 | 73 | 1019.0 |
| 20260507030944 | 61 | 212 | 1.0 | 1.0 | 0.00 | 0.00 | 0.00 | 73 | 1018.7 |
| 20260507030441 | 61 | 215 | 0.0 | 0.0 | 0.00 | 0.00 | 0.00 | 72 | 1018.9 |
| 20260507025938 | 62 | 218 | 0.0 | 1.0 | 0.00 | 0.00 | 0.00 | 72 | 1018.8 |
| 20260507025436 | 62 | 202 | 2.0 | 2.0 | 0.00 | 0.00 | 0.00 | 71 | 1019.0 |
| 20260507024933 | 62 | 231 | 1.0 | 1.0 | 0.00 | 0.00 | 0.00 | 71 | 1018.7 |
| 20260507024431 | 62 | 202 | 1.0 | 1.0 | 0.00 | 0.00 | 0.00 | 71 | 1018.7 |
| 20260507023926 | 63 | 201 | 0.0 | 1.0 | 0.00 | 0.00 | 0.00 | 70 | 1018.5 |
| 20260507023423 | 63 | 209 | 2.0 | 2.0 | 0.00 | 0.00 | 0.00 | 70 | 1018.5 |
| 20260507022920 | 63 | 220 | 1.0 | 1.0 | 0.00 | 0.00 | 0.00 | 69 | 1018.7 |
| 20260507022418 | 63 | 155 | 2.0 | 3.0 | 0.00 | 0.00 | 0.00 | 69 | 1018.6 |
| 20260507021913 | 64 | 177 | 2.0 | 3.0 | 0.00 | 0.00 | 0.00 | 68 | 1018.6 |
| 20260507021408 | 64 | 200 | 1.0 | 2.0 | 0.00 | 0.00 | 0.00 | 68 | 1018.7 |
| 20260507020906 | 65 | 209 | 1.0 | 1.0 | 0.00 | 0.00 | 0.00 | 67 | 1018.5 |
| 20260507020403 | 65 | 197 | 2.0 | 2.0 | 0.00 | 0.00 | 0.00 | 66 | 1018.5 |
| 20260507015900 | 66 | 107 | 3.0 | 5.0 | 0.00 | 0.00 | 0.00 | 65 | 1018.6 |
| 20260507015358 | 66 | 183 | 1.0 | 2.0 | 0.00 | 0.00 | 0.00 | 65 | 1018.6 |
| 20260507014854 | 67 | 229 | 2.0 | 2.0 | 0.00 | 0.00 | 0.00 | 63 | 1018.8 |
| 20260507014351 | 68 | 231 | 0.0 | 0.0 | 0.00 | 0.00 | 0.00 | 63 | 1018.7 |
| 20260507013847 | 68 | 239 | 1.0 | 2.0 | 0.00 | 0.00 | 0.00 | 63 | 1018.6 |
| 20260507013344 | 68 | 222 | 1.0 | 1.0 | 0.00 | 0.00 | 0.00 | 63 | 1018.5 |
| 20260507012842 | 68 | 229 | 0.0 | 1.0 | 0.00 | 0.00 | 0.00 | 62 | 1018.8 |
| 20260507012337 | 68 | 228 | 1.0 | 1.0 | 0.00 | 0.00 | 0.00 | 62 | 1018.5 |
| 20260507011835 | 68 | 225 | 1.0 | 1.0 | 0.00 | 0.00 | 0.00 | 62 | 1018.4 |
| 20260507011332 | 68 | 223 | 1.0 | 2.0 | 0.00 | 0.00 | 0.00 | 62 | 1018.5 |
| 20260507010826 | 69 | 229 | 1.0 | 1.0 | 0.00 | 0.00 | 0.00 | 62 | 1018.7 |
| 20260507010322 | 69 | 230 | 0.0 | 1.0 | 0.00 | 0.00 | 0.00 | 61 | 1018.7 |
| 20260507005819 | 69 | 227 | 0.0 | 1.0 | 0.00 | 0.00 | 0.00 | 62 | 1018.6 |
| 20260507005316 | 70 | 239 | 1.0 | 1.0 | 0.00 | 0.00 | 0.00 | 60 | 1018.5 |
| 20260507004813 | 70 | 252 | 1.0 | 2.0 | 0.00 | 0.00 | 0.00 | 59 | 1018.5 |
| 20260507004310 | 71 | 228 | 3.0 | 5.0 | 0.00 | 0.00 | 0.00 | 60 | 1018.3 |
| 20260507003807 | 71 | 215 | 0.0 | 1.0 | 0.00 | 0.00 | 0.00 | 60 | 1018.3 |
| 20260507003302 | 72 | 246 | 1.0 | 1.0 | 0.00 | 0.00 | 0.00 | 60 | 1018.2 |
| 20260507002758 | 72 | 232 | 1.0 | 1.0 | 0.00 | 0.00 | 0.00 | 60 | 1018.4 |
| 20260507002254 | 72 | 232 | 1.0 | 1.0 | 0.00 | 0.00 | 0.00 | 59 | 1018.3 |
| 20260507001751 | 72 | 226 | 1.0 | 1.0 | 0.00 | 0.00 | 0.00 | 59 | 1018.5 |
| 20260507001249 | 73 | 230 | 0.0 | 1.0 | 0.00 | 0.00 | 0.00 | 59 | 1018.1 |
| 20260507000744 | 72 | 222 | 1.0 | 2.0 | 0.00 | 0.00 | 0.00 | 60 | 1018.2 |
| 20260507000241 | 73 | 226 | 1.0 | 1.0 | 0.00 | 0.00 | 0.00 | 59 | 1018.4 |
| 20260506235738 | 74 | 191 | 0.0 | 1.0 | 0.00 | 0.00 | 0.00 | 59 | 1018.2 |
| 20260506235232 | 74 | 144 | 4.0 | 5.0 | 0.00 | 0.00 | 0.00 | 58 | 1018.3 |
| 20260506234730 | 73 | 228 | 3.0 | 3.0 | 0.00 | 0.00 | 0.00 | 59 | 1018.2 |
| 20260506234227 | 71 | 226 | 0.0 | 1.0 | 0.00 | 0.00 | 0.00 | 61 | 1018.2 |
| 20260506233725 | 71 | 188 | 3.0 | 3.0 | 0.00 | 0.00 | 0.00 | 62 | 1018.1 |
| 20260506233221 | 71 | 144 | 4.0 | 6.0 | 0.00 | 0.00 | 0.00 | 63 | 1018.4 |
| 20260506232718 | 73 | 166 | 5.0 | 7.0 | 0.00 | 0.00 | 0.00 | 59 | 1018.3 |
| 20260506232212 | 71 | 189 | 3.0 | 3.0 | 0.00 | 0.00 | 0.00 | 61 | 1018.4 |
| 20260506231710 | 73 | 254 | 2.0 | 2.0 | 0.00 | 0.00 | 0.00 | 60 | 1018.3 |
| 20260506231209 | 75 | 233 | 0.0 | 0.0 | 0.00 | 0.00 | 0.00 | 56 | 1018.4 |
| 20260506230705 | 76 | 271 | 3.0 | 5.0 | 0.00 | 0.00 | 0.00 | 55 | 1018.4 |
| 20260506230202 | 76 | 261 | 1.0 | 2.0 | 0.00 | 0.00 | 0.00 | 56 | 1018.5 |
| 20260506225658 | 74 | 221 | 2.0 | 2.0 | 0.00 | 0.00 | 0.00 | 58 | 1018.5 |
| 20260506225155 | 73 | 218 | 0.0 | 0.0 | 0.00 | 0.00 | 0.00 | 60 | 1018.6 |
| 20260506224651 | 72 | 207 | 2.0 | 2.0 | 0.00 | 0.00 | 0.00 | 60 | 1018.6 |
| 20260506224148 | 73 | 232 | 1.0 | 1.0 | 0.00 | 0.00 | 0.00 | 59 | 1018.7 |
| 20260506223645 | 71 | 231 | 3.0 | 3.0 | 0.00 | 0.00 | 0.00 | 62 | 1018.8 |
| 20260506223140 | 70 | 234 | 0.0 | 1.0 | 0.00 | 0.00 | 0.00 | 63 | 1019.0 |
| 20260506222638 | 70 | 208 | 2.0 | 3.0 | 0.00 | 0.00 | 0.00 | 64 | 1018.8 |
| 20260506222134 | 70 | 143 | 0.0 | 2.0 | 0.00 | 0.00 | 0.00 | 65 | 1018.9 |
| 20260506221632 | 71 | 220 | 2.0 | 3.0 | 0.00 | 0.00 | 0.00 | 61 | 1019.0 |
| 20260506221130 | 70 | 240 | 0.0 | 1.0 | 0.00 | 0.00 | 0.00 | 63 | 1019.0 |
| 20260506220626 | 70 | 216 | 0.0 | 1.0 | 0.00 | 0.00 | 0.00 | 63 | 1018.9 |
| 20260506220121 | 69 | 224 | 2.0 | 2.0 | 0.00 | 0.00 | 0.00 | 64 | 1019.0 |
| 20260506215618 | 69 | 134 | 1.0 | 3.0 | 0.00 | 0.00 | 0.00 | 65 | 1018.9 |
| 20260506215113 | 70 | 208 | 2.0 | 2.0 | 0.00 | 0.00 | 0.00 | 64 | 1018.9 |
| 20260506214611 | 69 | 229 | 2.0 | 5.0 | 0.00 | 0.00 | 0.00 | 64 | 1019.0 |
| 20260506214108 | 70 | 196 | 2.0 | 2.0 | 0.00 | 0.00 | 0.00 | 64 | 1019.1 |
| 20260506213606 | 69 | 211 | 1.0 | 1.0 | 0.00 | 0.00 | 0.00 | 65 | 1018.8 |
| 20260506213103 | 69 | 77 | 1.0 | 1.0 | 0.00 | 0.00 | 0.00 | 66 | 1019.2 |
| 20260506212600 | 68 | 218 | 3.0 | 3.0 | 0.00 | 0.00 | 0.00 | 67 | 1019.3 |
| 20260506212054 | 69 | 222 | 0.0 | 1.0 | 0.00 | 0.00 | 0.00 | 64 | 1019.2 |
| 20260506211551 | 67 | 221 | 0.0 | 0.0 | 0.00 | 0.00 | 0.00 | 70 | 1019.4 |
| 20260506211048 | 68 | 214 | 3.0 | 5.0 | 0.00 | 0.00 | 0.00 | 68 | 1019.3 |
| 20260506210544 | 68 | 221 | 1.0 | 1.0 | 0.00 | 0.00 | 0.00 | 67 | 1019.6 |
| 20260506210041 | 69 | 199 | 2.0 | 2.0 | 0.00 | 0.00 | 0.00 | 66 | 1019.6 |
| 20260506205538 | 68 | 229 | 1.0 | 2.0 | 0.00 | 0.00 | 0.00 | 68 | 1019.4 |
| 20260506205033 | 66 | 225 | 2.0 | 3.0 | 0.00 | 0.00 | 0.00 | 72 | 1019.2 |
| 20260506204532 | 66 | 193 | 2.0 | 2.0 | 0.00 | 0.00 | 0.00 | 72 | 1019.3 |
| 20260506204028 | 66 | 150 | 5.0 | 6.0 | 0.00 | 0.00 | 0.00 | 71 | 1019.2 |
| 20260506203527 | 65 | 210 | 2.0 | 3.0 | 0.00 | 0.00 | 0.00 | 74 | 1019.4 |
| 20260506203023 | 66 | 129 | 7.0 | 10.0 | 0.00 | 0.00 | 0.00 | 72 | 1019.4 |
| 20260506202520 | 67 | 164 | 3.0 | 3.0 | 0.00 | 0.00 | 0.00 | 71 | 1019.3 |
| 20260506202016 | 68 | 214 | 1.0 | 1.0 | 0.00 | 0.00 | 0.00 | 67 | 1019.4 |
| 20260506201514 | 67 | 231 | 1.0 | 2.0 | 0.00 | 0.00 | 0.00 | 69 | 1019.3 |
| 20260506201010 | 66 | 202 | 2.0 | 2.0 | 0.00 | 0.00 | 0.00 | 72 | 1019.4 |
| 20260506200507 | 66 | 180 | 2.0 | 3.0 | 0.00 | 0.00 | 0.00 | 72 | 1019.6 |
| 20260506200004 | 64 | 211 | 1.0 | 1.0 | 0.00 | 0.00 | 0.00 | 73 | 1019.7 |
| 20260506195501 | 63 | 220 | 1.0 | 1.0 | 0.00 | 0.00 | 0.00 | 76 | 1019.7 |
| 20260506194956 | 63 | 199 | 1.0 | 1.0 | 0.00 | 0.00 | 0.00 | 76 | 1019.9 |
| 20260506194454 | 64 | 253 | 1.0 | 2.0 | 0.00 | 0.00 | 0.00 | 74 | 1019.8 |
| 20260506193950 | 66 | 236 | 0.0 | 0.0 | 0.00 | 0.00 | 0.00 | 71 | 1019.8 |
| 20260506193448 | 66 | 228 | 1.0 | 1.0 | 0.00 | 0.00 | 0.00 | 71 | 1020.1 |
| 20260506192944 | 66 | 233 | 2.0 | 2.0 | 0.00 | 0.00 | 0.00 | 71 | 1019.9 |
| 20260506192442 | 65 | 220 | 2.0 | 3.0 | 0.00 | 0.00 | 0.00 | 73 | 1019.9 |
| 20260506191938 | 65 | 216 | 0.0 | 0.0 | 0.00 | 0.00 | 0.00 | 73 | 1020.0 |
| 20260506191435 | 65 | 210 | 1.0 | 1.0 | 0.00 | 0.00 | 0.00 | 74 | 1019.9 |
| 20260506190931 | 65 | 230 | 1.0 | 2.0 | 0.00 | 0.00 | 0.00 | 72 | 1019.7 |
| 20260506190428 | 65 | 222 | 1.0 | 2.0 | 0.00 | 0.00 | 0.00 | 73 | 1019.6 |
| 20260506185925 | 64 | 234 | 0.0 | 0.0 | 0.00 | 0.00 | 0.00 | 74 | 1019.8 |
| 20260506185422 | 64 | 228 | 2.0 | 3.0 | 0.00 | 0.00 | 0.00 | 73 | 1019.7 |
| 20260506184919 | 66 | 234 | 3.0 | 6.0 | 0.00 | 0.00 | 0.00 | 69 | 1019.9 |
| 20260506184416 | 65 | 215 | 3.0 | 5.0 | 0.00 | 0.00 | 0.00 | 72 | 1019.7 |
| 20260506183914 | 64 | 223 | 3.0 | 3.0 | 0.00 | 0.00 | 0.00 | 74 | 1019.8 |
| 20260506183409 | 65 | 199 | 2.0 | 2.0 | 0.00 | 0.00 | 0.00 | 72 | 1019.4 |
| 20260506182906 | 64 | 221 | 2.0 | 2.0 | 0.00 | 0.00 | 0.00 | 74 | 1019.6 |
| 20260506182403 | 62 | 170 | 4.0 | 5.0 | 0.00 | 0.00 | 0.00 | 75 | 1019.5 |
| 20260506181900 | 64 | 210 | 2.0 | 3.0 | 0.00 | 0.00 | 0.00 | 72 | 1019.9 |
| 20260506181358 | 64 | 217 | 3.0 | 3.0 | 0.00 | 0.00 | 0.00 | 73 | 1019.9 |
| 20260506180855 | 65 | 255 | 3.0 | 5.0 | 0.00 | 0.00 | 0.00 | 71 | 1019.8 |
| 20260506180351 | 63 | 149 | 3.0 | 3.0 | 0.00 | 0.00 | 0.00 | 75 | 1019.9 |
| 20260506175848 | 63 | 231 | 3.0 | 3.0 | 0.00 | 0.00 | 0.00 | 74 | 1019.9 |
| 20260506175345 | 63 | 233 | 2.0 | 3.0 | 0.00 | 0.00 | 0.00 | 74 | 1020.2 |
| 20260506174842 | 62 | 249 | 1.0 | 1.0 | 0.00 | 0.00 | 0.00 | 76 | 1019.8 |
| 20260506174339 | 61 | 228 | 3.0 | 3.0 | 0.00 | 0.00 | 0.00 | 77 | 1019.7 |
| 20260506173837 | 62 | 225 | 0.0 | 0.0 | 0.00 | 0.00 | 0.00 | 77 | 1019.7 |
| 20260506173333 | 61 | 231 | 0.0 | 0.0 | 0.00 | 0.00 | 0.00 | 78 | 1019.6 |
| 20260506172830 | 62 | 233 | 3.0 | 3.0 | 0.00 | 0.00 | 0.00 | 77 | 1019.5 |
| 20260506172327 | 60 | 220 | 0.0 | 1.0 | 0.00 | 0.00 | 0.00 | 78 | 1019.4 |
| 20260506171824 | 59 | 228 | 2.0 | 3.0 | 0.00 | 0.00 | 0.00 | 81 | 1019.4 |
| 20260506171321 | 59 | 226 | 1.0 | 1.0 | 0.00 | 0.00 | 0.00 | 81 | 1019.7 |
| 20260506170819 | 60 | 224 | 0.0 | 0.0 | 0.00 | 0.00 | 0.00 | 79 | 1019.6 |
| 20260506170315 | 60 | 226 | 0.0 | 0.0 | 0.00 | 0.00 | 0.00 | 79 | 1019.8 |
| 20260506165814 | 59 | 236 | 0.0 | 0.0 | 0.00 | 0.00 | 0.00 | 81 | 1019.8 |
| 20260506165311 | 59 | 231 | 0.0 | 1.0 | 0.00 | 0.00 | 0.00 | 79 | 1019.9 |
| 20260506164808 | 59 | 230 | 0.0 | 1.0 | 0.00 | 0.00 | 0.00 | 81 | 1019.7 |
| 20260506164304 | 58 | 238 | 0.0 | 1.0 | 0.00 | 0.00 | 0.00 | 82 | 1019.8 |
| 20260506163801 | 58 | 240 | 1.0 | 1.0 | 0.00 | 0.00 | 0.00 | 82 | 1019.9 |
| 20260506163256 | 58 | 233 | 0.0 | 0.0 | 0.00 | 0.00 | 0.00 | 82 | 1019.9 |
| 20260506162752 | 57 | 255 | 3.0 | 3.0 | 0.00 | 0.00 | 0.00 | 83 | 1019.7 |
| 20260506162250 | 58 | 247 | 0.0 | 0.0 | 0.00 | 0.00 | 0.00 | 82 | 1019.8 |
| 20260506161747 | 57 | 241 | 1.0 | 2.0 | 0.00 | 0.00 | 0.00 | 83 | 1019.8 |
| 20260506161245 | 58 | 227 | 0.0 | 0.0 | 0.00 | 0.00 | 0.00 | 82 | 1019.6 |
| 20260506160742 | 58 | 216 | 0.0 | 1.0 | 0.00 | 0.00 | 0.00 | 82 | 1019.6 |
| 20260506160238 | 57 | 234 | 0.0 | 0.0 | 0.00 | 0.00 | 0.00 | 83 | 1019.5 |
| 20260506155737 | 57 | 222 | 1.0 | 1.0 | 0.00 | 0.00 | 0.00 | 83 | 1019.4 |
| 20260506155233 | 57 | 210 | 1.0 | 2.0 | 0.00 | 0.00 | 0.00 | 84 | 1019.2 |
| 20260506153341 | 57 | 171 | 2.0 | 3.0 | 0.00 | 0.00 | 0.00 | 86 | 1019.1 |
| 20260506152837 | 56 | 205 | 1.0 | 1.0 | 0.00 | 0.00 | 0.00 | 87 | 1019.2 |
| 20260506152335 | 56 | 194 | 0.0 | 0.0 | 0.00 | 0.00 | 0.00 | 87 | 1019.6 |
| 20260506151833 | 55 | 216 | 0.0 | 0.0 | 0.00 | 0.00 | 0.00 | 88 | 1019.5 |
| 20260506151330 | 55 | 226 | 0.0 | 0.0 | 0.00 | 0.00 | 0.00 | 88 | 1019.7 |
| 20260506150827 | 55 | 204 | 1.0 | 1.0 | 0.00 | 0.00 | 0.00 | 88 | 1019.6 |
| 20260506150324 | 55 | 218 | 1.0 | 1.0 | 0.00 | 0.00 | 0.00 | 88 | 1019.8 |
| 20260506145821 | 55 | 228 | 0.0 | 0.0 | 0.00 | 0.00 | 0.00 | 88 | 1020.0 |
| 20260506145317 | 55 | 229 | 0.0 | 0.0 | 0.00 | 0.00 | 0.00 | 88 | 1019.6 |
| 20260506144815 | 55 | 229 | 0.0 | 0.0 | 0.00 | 0.00 | 0.00 | 89 | 1019.9 |
| 20260506144311 | 55 | 237 | 0.0 | 0.0 | 0.00 | 0.00 | 0.00 | 89 | 1019.7 |
| 20260506143809 | 55 | 230 | 0.0 | 0.0 | 0.00 | 0.00 | 0.00 | 89 | 1019.5 |
| 20260506143306 | 55 | 237 | 1.0 | 1.0 | 0.00 | 0.00 | 0.00 | 89 | 1019.9 |
| 20260506142804 | 55 | 248 | 1.0 | 1.0 | 0.00 | 0.00 | 0.00 | 88 | 1019.1 |
| 20260506142305 | 55 | 234 | 0.0 | 0.0 | 0.00 | 0.00 | 0.00 | 89 | 1019.2 |
| 20260506141800 | 55 | 233 | 0.0 | 0.0 | 0.00 | 0.00 | 0.00 | 89 | 1018.9 |
| 20260506141258 | 55 | 237 | 0.0 | 0.0 | 0.00 | 0.00 | 0.00 | 90 | 1018.7 |
| 20260506140755 | 55 | 252 | 0.0 | 0.0 | 0.00 | 0.00 | 0.00 | 90 | 1018.7 |
| 20260506140252 | 55 | 241 | 0.0 | 0.0 | 0.00 | 0.00 | 0.00 | 90 | 1018.7 |
| 20260506135749 | 54 | 221 | 0.0 | 0.0 | 0.00 | 0.00 | 0.00 | 90 | 1018.7 |
| 20260506135245 | 54 | 219 | 0.0 | 0.0 | 0.00 | 0.00 | 0.00 | 91 | 1018.4 |
| 20260506134742 | 54 | 232 | 0.0 | 0.0 | 0.00 | 0.00 | 0.00 | 91 | 1018.8 |
| 20260506134239 | 54 | 231 | 0.0 | 0.0 | 0.00 | 0.00 | 0.00 | 91 | 1018.5 |
| 20260506133736 | 54 | 231 | 0.0 | 0.0 | 0.00 | 0.00 | 0.00 | 91 | 1018.6 |
| 20260506133232 | 54 | 231 | 0.0 | 0.0 | 0.00 | 0.00 | 0.00 | 91 | 1018.7 |
| 20260506132729 | 54 | 229 | 0.0 | 0.0 | 0.00 | 0.00 | 0.00 | 91 | 1018.3 |
| 20260506132226 | 54 | 231 | 1.0 | 1.0 | 0.00 | 0.00 | 0.00 | 91 | 1018.4 |
| 20260506131724 | 54 | 217 | 0.0 | 1.0 | 0.00 | 0.00 | 0.00 | 91 | 1018.6 |
| 20260506131220 | 54 | 229 | 1.0 | 1.0 | 0.00 | 0.00 | 0.00 | 91 | 1018.5 |
| 20260506130717 | 54 | 215 | 0.0 | 1.0 | 0.00 | 0.00 | 0.00 | 91 | 1018.4 |
| 20260506130214 | 54 | 207 | 2.0 | 2.0 | 0.00 | 0.00 | 0.00 | 91 | 1018.2 |
| 20260506125712 | 54 | 196 | 1.0 | 2.0 | 0.00 | 0.00 | 0.00 | 91 | 1018.3 |
| 20260506125210 | 54 | 219 | 1.0 | 1.0 | 0.00 | 0.00 | 0.00 | 91 | 1018.2 |
| 20260506124708 | 54 | 202 | 0.0 | 0.0 | 0.00 | 0.00 | 0.00 | 91 | 1018.4 |
| 20260506124206 | 54 | 225 | 0.0 | 0.0 | 0.00 | 0.00 | 0.00 | 91 | 1018.3 |
| 20260506123702 | 54 | 199 | 2.0 | 2.0 | 0.00 | 0.00 | 0.00 | 90 | 1018.2 |
| 20260506123201 | 54 | 225 | 0.0 | 1.0 | 0.00 | 0.00 | 0.00 | 90 | 1018.0 |
| 20260506122658 | 54 | 175 | 2.0 | 2.0 | 0.00 | 0.00 | 0.00 | 90 | 1018.0 |
| 20260506122155 | 54 | 120 | 0.0 | 1.0 | 0.00 | 0.00 | 0.00 | 90 | 1018.1 |
| 20260506121653 | 54 | 203 | 1.0 | 2.0 | 0.00 | 0.00 | 0.00 | 90 | 1018.4 |
| 20260506121149 | 55 | 206 | 0.0 | 1.0 | 0.00 | 0.00 | 0.00 | 90 | 1018.3 |
| 20260506120647 | 55 | 209 | 1.0 | 1.0 | 0.00 | 0.00 | 0.00 | 90 | 1018.2 |
| 20260506120144 | 55 | 210 | 1.0 | 2.0 | 0.00 | 0.00 | 0.00 | 90 | 1018.2 |
| 20260506115642 | 55 | 196 | 0.0 | 0.0 | 0.00 | 0.00 | 0.00 | 90 | 1018.2 |
| 20260506115140 | 55 | 214 | 0.0 | 0.0 | 0.00 | 0.00 | 0.00 | 90 | 1018.0 |
| 20260506114637 | 55 | 223 | 0.0 | 0.0 | 0.00 | 0.00 | 0.00 | 90 | 1017.8 |
| 20260506114135 | 55 | 210 | 0.0 | 1.0 | 0.00 | 0.00 | 0.00 | 90 | 1017.9 |
| 20260506113634 | 55 | 222 | 0.0 | 0.0 | 0.00 | 0.00 | 0.00 | 90 | 1017.7 |
| 20260506113130 | 55 | 220 | 0.0 | 0.0 | 0.00 | 0.00 | 0.00 | 90 | 1017.8 |
| 20260506112626 | 55 | 223 | 0.0 | 0.0 | 0.00 | 0.00 | 0.00 | 90 | 1017.7 |
| 20260506112124 | 56 | 222 | 0.0 | 0.0 | 0.00 | 0.00 | 0.00 | 90 | 1017.6 |
| 20260506111622 | 56 | 218 | 0.0 | 0.0 | 0.00 | 0.00 | 0.00 | 90 | 1017.9 |
| 20260506111119 | 56 | 206 | 0.0 | 0.0 | 0.00 | 0.00 | 0.00 | 90 | 1017.7 |
| 20260506110616 | 56 | 217 | 0.0 | 0.0 | 0.00 | 0.00 | 0.00 | 89 | 1017.6 |
| 20260506110114 | 56 | 218 | 0.0 | 0.0 | 0.00 | 0.00 | 0.00 | 89 | 1017.4 |
| 20260506105610 | 56 | 220 | 0.0 | 0.0 | 0.00 | 0.00 | 0.00 | 89 | 1017.4 |
| 20260506105107 | 56 | 208 | 0.0 | 0.0 | 0.00 | 0.00 | 0.00 | 88 | 1017.1 |
| 20260506104605 | 56 | 201 | 0.0 | 0.0 | 0.00 | 0.00 | 0.00 | 88 | 1017.1 |
| 20260506104102 | 56 | 200 | 0.0 | 0.0 | 0.00 | 0.00 | 0.00 | 88 | 1017.2 |
| 20260506103600 | 56 | 213 | 0.0 | 0.0 | 0.00 | 0.00 | 0.00 | 88 | 1016.9 |
| 20260506103056 | 56 | 217 | 0.0 | 0.0 | 0.00 | 0.00 | 0.00 | 88 | 1017.1 |
| 20260506102555 | 56 | 215 | 0.0 | 0.0 | 0.00 | 0.00 | 0.00 | 88 | 1016.9 |
| 20260506102052 | 56 | 215 | 0.0 | 0.0 | 0.00 | 0.00 | 0.00 | 88 | 1017.0 |
| 20260506101548 | 56 | 211 | 0.0 | 1.0 | 0.00 | 0.00 | 0.00 | 88 | 1016.7 |
| 20260506101046 | 56 | 207 | 0.0 | 0.0 | 0.00 | 0.00 | 0.00 | 88 | 1016.8 |
| 20260506100544 | 56 | 225 | 0.0 | 0.0 | 0.00 | 0.00 | 0.00 | 88 | 1016.6 |
| 20260506100041 | 56 | 227 | 0.0 | 0.0 | 0.00 | 0.00 | 0.00 | 88 | 1016.6 |
| 20260506095540 | 56 | 227 | 0.0 | 0.0 | 0.00 | 0.00 | 0.00 | 88 | 1017.0 |
| 20260506095036 | 56 | 227 | 0.0 | 0.0 | 0.00 | 0.00 | 0.00 | 88 | 1016.7 |
| 20260506094534 | 56 | 226 | 0.0 | 0.0 | 0.00 | 0.00 | 0.00 | 88 | 1016.7 |
| 20260506094032 | 56 | 227 | 0.0 | 0.0 | 0.00 | 0.00 | 0.00 | 88 | 1016.6 |
| 20260506093530 | 56 | 221 | 0.0 | 0.0 | 0.00 | 0.00 | 0.00 | 88 | 1016.6 |
| 20260506093027 | 56 | 221 | 0.0 | 0.0 | 0.00 | 0.00 | 0.00 | 88 | 1016.6 |
| 20260506092525 | 56 | 221 | 0.0 | 0.0 | 0.00 | 0.00 | 0.00 | 88 | 1016.5 |
| 20260506092021 | 57 | 207 | 0.0 | 0.0 | 0.00 | 0.00 | 0.00 | 87 | 1016.7 |
| 20260506091520 | 57 | 205 | 0.0 | 0.0 | 0.00 | 0.00 | 0.00 | 87 | 1016.5 |
| 20260506091016 | 57 | 208 | 1.0 | 1.0 | 0.00 | 0.00 | 0.00 | 87 | 1016.5 |
| 20260506090514 | 57 | 222 | 0.0 | 0.0 | 0.00 | 0.00 | 0.00 | 86 | 1016.6 |
| 20260506090010 | 57 | 224 | 0.0 | 0.0 | 0.00 | 0.00 | 0.00 | 87 | 1016.5 |
| 20260506085507 | 57 | 224 | 0.0 | 0.0 | 0.00 | 0.00 | 0.00 | 87 | 1016.4 |
| 20260506085004 | 57 | 224 | 0.0 | 0.0 | 0.00 | 0.00 | 0.00 | 86 | 1016.4 |
| 20260506084501 | 57 | 223 | 0.0 | 0.0 | 0.00 | 0.00 | 0.00 | 86 | 1016.3 |
| 20260506083956 | 57 | 222 | 0.0 | 0.0 | 0.00 | 0.00 | 0.00 | 86 | 1016.3 |
| 20260506083454 | 57 | 215 | 1.0 | 1.0 | 0.00 | 0.00 | 0.00 | 86 | 1016.5 |
| 20260506082951 | 57 | 215 | 1.0 | 1.0 | 0.00 | 0.00 | 0.00 | 86 | 1016.4 |
| 20260506082448 | 57 | 204 | 0.0 | 0.0 | 0.00 | 0.00 | 0.00 | 86 | 1016.4 |
| 20260506081944 | 57 | 168 | 3.0 | 3.0 | 0.00 | 0.00 | 0.00 | 86 | 1016.5 |
| 20260506081442 | 57 | 182 | 2.0 | 2.0 | 0.00 | 0.00 | 0.00 | 86 | 1016.3 |
| 20260506080939 | 57 | 222 | 0.0 | 0.0 | 0.00 | 0.00 | 0.00 | 86 | 1016.1 |
| 20260506080436 | 58 | 215 | 0.0 | 0.0 | 0.00 | 0.00 | 0.00 | 86 | 1016.5 |
| 20260506073420 | 59 | 220 | 0.0 | 0.0 | 0.00 | 0.00 | 0.00 | 85 | 1016.1 |
| 20260506072917 | 59 | 215 | 0.0 | 0.0 | 0.00 | 0.00 | 0.00 | 85 | 1016.2 |
| 20260506072414 | 59 | 220 | 0.0 | 0.0 | 0.00 | 0.00 | 0.00 | 85 | 1016.1 |
| 20260506071912 | 59 | 208 | 0.0 | 0.0 | 0.00 | 0.00 | 0.00 | 86 | 1016.0 |
| 20260506071410 | 59 | 219 | 0.0 | 0.0 | 0.00 | 0.00 | 0.00 | 86 | 1015.8 |
| 20260506070907 | 59 | 220 | 0.0 | 0.0 | 0.00 | 0.00 | 0.00 | 87 | 1016.1 |
| 20260506070403 | 59 | 219 | 0.0 | 0.0 | 0.00 | 0.00 | 0.00 | 87 | 1015.9 |
| 20260506062341 | 59 | 229 | 0.0 | 0.0 | 0.00 | 0.00 | 0.00 | 87 | 1015.8 |
| 20260506061836 | 59 | 229 | 0.0 | 0.0 | 0.00 | 0.00 | 0.00 | 88 | 1015.5 |
| 20260506061333 | 59 | 230 | 0.0 | 0.0 | 0.00 | 0.00 | 0.00 | 88 | 1015.8 |
| 20260506060832 | 59 | 231 | 0.0 | 0.0 | 0.00 | 0.00 | 0.00 | 87 | 1015.7 |
| 20260506060329 | 59 | 221 | 0.0 | 0.0 | 0.00 | 0.00 | 0.00 | 87 | 1015.8 |
| 20260506051301 | 58 | 221 | 0.0 | 0.0 | 0.00 | 0.00 | 0.00 | 87 | 1015.5 |
| 20260506050759 | 58 | 235 | 0.0 | 0.0 | 0.00 | 0.00 | 0.00 | 87 | 1015.6 |
| 20260506050256 | 58 | 234 | 0.0 | 0.0 | 0.00 | 0.00 | 0.00 | 87 | 1015.7 |
| 20260506044747 | 57 | 234 | 0.0 | 0.0 | 0.00 | 0.00 | 0.00 | 89 | 1015.5 |
| 20260506044244 | 57 | 236 | 0.0 | 0.0 | 0.00 | 0.00 | 0.00 | 90 | 1015.4 |
| 20260506043741 | 56 | 237 | 0.0 | 0.0 | 0.00 | 0.00 | 0.00 | 90 | 1015.3 |
| 20260506043239 | 56 | 236 | 0.0 | 0.0 | 0.00 | 0.00 | 0.00 | 90 | 1015.3 |
| 20260506042737 | 56 | 234 | 0.0 | 0.0 | 0.00 | 0.00 | 0.00 | 90 | 1015.2 |
| 20260506042236 | 56 | 233 | 0.0 | 0.0 | 0.00 | 0.00 | 0.00 | 90 | 1015.0 |
| 20260506041734 | 56 | 234 | 0.0 | 0.0 | 0.00 | 0.00 | 0.00 | 89 | 1015.0 |
| 20260506041230 | 57 | 235 | 0.0 | 0.0 | 0.00 | 0.00 | 0.00 | 88 | 1014.6 |